Home > Time Zones > World Clock > Weather > Iran > Tehran > Past weeks

Flag for Iran Weather past 2 weeks in Tehran, Iran

Now
97 °F

Clear.


Feels Like: 92 °F
Forecast: 78 / 106 °F
Wind: 9 mph from Northeast

Location: Tehran-Mehrabad

Current Time: Jul 27, 2014 at 12:09:32 AM

Latest Report: Jul 26, 2014 at 11:30 PM


Visibility: 10 mi

Pressure: 29.83 "Hg

Humidity: 12%

Dew point: 36 °F

Location of TehranLocation

Historic Weather in Tehran — Graph

°F

Tehran temperature yesterday

Maximum temperature yesterday: 106 °F (at 2:30 PM)
Minimum temperature yesterday: 82 °F (at 6:00 AM)
Average temperature yesterday: 96 °F

Past Weeks' High & Low Weather Summary

 TemperatureHumidityPressure
High106 °F (Jul 26, 2:30 PM)44% (Jul 21, 6:00 AM)32.90 "Hg (Jul 21, 6:00 AM)
Low70 °F (Jul 23, 6:00 AM)6% (Jul 26, 1:00 PM)29.62 "Hg (Jul 20, 6:30 PM)
Average92 °F17%29.82 "Hg
* Reported Jul 11 10:30 PM — Jul 26 11:00 PM, Tehran, Weather by CustomWeather, © 2014

Note: Actual official high and low records may vary slightly from our data, if they occured in-between our weather recording intervals... More about our weather records

Advertising

Tehran weather history for previous 24 hours

 ConditionsComfort  
Time TempWeatherWind HumidityBarometerVisibility
11:00 PM
Jul 26
97 °FClear.7 mph12%29.83 "Hg10 mi
10:30 PM97 °FClear.7 mph12%29.83 "Hg10 mi
10:00 PM97 °FClear.5 mph13%29.83 "Hg10 mi
9:30 PM99 °FSunny.5 mph10%29.80 "Hg10 mi
9:00 PM99 °FSunny.7 mph11%29.80 "Hg10 mi
8:30 PM100 °FSunny.7 mph8%29.80 "Hg10 mi
8:00 PM102 °FSunny.7 mph8%29.80 "Hg10 mi
7:30 PM104 °FSunny.9 mph6%29.80 "Hg10 mi
7:00 PM104 °FSunny.12 mph7%29.80 "Hg10 mi
6:30 PM106 °FSunny.12 mph6%29.80 "Hg10 mi
6:00 PM104 °FSunny.9 mph7%29.80 "Hg10 mi
5:30 PM106 °FSunny.14 mph7%29.80 "Hg10 mi
5:00 PM106 °FPassing clouds.12 mph7%29.80 "HgN/A
4:30 PM106 °FPassing clouds.7 mph7%29.80 "HgN/A
4:00 PM106 °FPassing clouds.14 mph7%29.83 "HgN/A
3:30 PM104 °FSunny.9 mph7%29.83 "Hg10 mi
3:00 PM104 °FSunny.9 mph7%29.83 "Hg10 mi
2:30 PM106 °FSunny.12 mph7%29.83 "Hg10 mi
2:00 PM104 °FSunny.12 mph7%29.86 "Hg10 mi
1:30 PM104 °FSunny.5 mph6%29.86 "Hg10 mi
1:00 PM102 °FSunny.12 mph6%29.86 "Hg10 mi
12:30 PM102 °FSunny.5 mph7%29.89 "Hg10 mi
12:00 PM100 °FSunny.5 mph8%29.89 "Hg10 mi
11:30 AM100 °FSunny.5 mph8%29.89 "Hg10 mi
11:00 AM100 °FSunny.9 mph8%29.89 "Hg10 mi
10:30 AM99 °FSunny.9 mph8%29.89 "Hg10 mi
10:00 AM99 °FSunny.9 mph9%29.89 "Hg10 mi
9:30 AM93 °FSunny.7 mph13%29.89 "Hg10 mi
9:00 AM93 °FSunny.5 mph16%29.89 "Hg10 mi
8:30 AM93 °FSunny.No wind15%29.89 "Hg10 mi
8:00 AM90 °FSunny.5 mph21%29.86 "Hg10 mi
7:30 AM88 °FClear.No wind22%29.86 "Hg10 mi
6:50 AM82 °FClear.No wind23%29.86 "Hg10 mi
6:30 AM82 °FClear.No wind23%29.86 "Hg10 mi
6:00 AM82 °FClear.No wind23%29.83 "Hg10 mi
5:30 AM86 °FClear.No wind18%29.83 "Hg10 mi
4:50 AM88 °FClear.7 mph17%29.83 "Hg10 mi
4:30 AM88 °FClear.7 mph17%29.83 "Hg10 mi
4:00 AM90 °FClear.7 mph14%29.83 "Hg10 mi
3:30 AM90 °FClear.7 mph14%29.83 "Hg10 mi
2:50 AM90 °FClear.7 mph16%29.83 "Hg10 mi
2:30 AM90 °FClear.7 mph16%29.83 "Hg10 mi
1:50 AM90 °FPassing clouds.7 mph15%29.80 "HgN/A
1:25 AM90 °FPassing clouds.7 mph15%29.80 "HgN/A
1:00 AM90 °FPassing clouds.5 mph16%29.83 "HgN/A
12:30 AM91 °FPassing clouds.7 mph16%29.80 "HgN/A
12:00 AM93 °FPassing clouds.5 mph14%29.80 "HgN/A
Weather by CustomWeather, © 2014

See weather overviewHow to use our weather pages